Location: El Bakhil
(32.7726°N, 5.5387°W)
Time: 05:31:22
(UTC+00:00)

Cosmos 2084 Rocket - Pass Details

Date: 03 March 2021
Orbit: 528 x 653 km, 62.8° (Epoch: 12 April)

Event Time Altitude Azimuth Distance (km) Brightness Sun altitude
Rises 20:04:40 0° 328° (NNW) 2,841 7.5 -22.5°
Reaches altitude 10° 20:06:53 10° 328° (NNW) 1,956 6.6 -23.0°
Maximum altitude 20:11:20 86° 242° (WSW) 628 3.5 -23.9°
Enters shadow 20:11:37 78° 171° (S) 639 3.4 -24.0°
